Lid_Strength_Index
10 9 7 5 2 2 2 2 2 1 2 2 2 2 2 2 2 2 2 1 1 1 1 1 2 1 1 2 2 2 3 4 3 4 4 4 3 3 3 4 4 3 3
11 13 10 10 7 2 2 2 2 1 1 1 1 1 1 2 2 1 2 2 1 1 1 2 1 1 1 2 2 2 3 3 3 4 4 6 4 4 4 4 3 4 3
15 15 14 12 12 11 8 2 2 1 1 1 1 1 1 2 3 2 2 2 2 2 1 1 1 1 1 2 2 2 3 3 3 3 4 6 7 5 4 4 4 4 3
17 16 17 16 15 14 11 10 3 1 1 1 1 2 2 3 2 2 2 1 1 2 2 2 2 2 1 2 2 1 2 3 4 3 3 4 4 6 7 5 4 4 3
18 17 19 17 17 16 14 12 10 5 1 1 1 2 2 2 2 2 2 1 1 1 1 2 2 2 2 2 3 3 3 3 3 3 4 5 5 5 6 7 5 4 3
19 18 19 18 18 18 17 14 13 10 5 1 1 1 2 2 2 3 2 2 1 1 1 1 1 1 1 2 2 2 3 3 3 4 4 5 5 6 6 6 6 5 4
20 19 20 20 20 19 19 18 15 14 13 7 1 1 1 1 2 2 3 2 2 2 1 1 1 1 1 1 1 1 2 2 3 4 4 4 4 4 4 4 5 5 4
20 20 21 20 21 20 20 19 18 16 15 14 7 1 1 1 1 2 2 2 1 1 1 1 1 1 1 1 1 2 2 2 2 3 3 3 2 2 2 3 4 6 5
20 20 19 20 21 20 20 19 19 17 16 15 14 9 1 1 1 2 2 2 1 1 2 1 1 1 1 1 1 2 2 2 2 2 2 2 2 2 2 3 3 4 6
20 20 20 19 20 20 20 19 19 18 16 17 15 14 10 3 1 1 2 2 2 2 2 2 1 1 1 1 2 2 2 2 2 2 3 3 2 2 2 2 3 3 5
20 20 20 19 20 18 20 19 19 19 18 17 16 15 14 11 7 1 1 1 2 2 2 2 2 2 2 2 2 2 2 2 2 2 3 3 3 3 3 3 3 4 4
20 19 19 20 20 19 20 19 19 19 18 19 17 16 15 15 12 11 2 1 1 1 2 2 2 3 2 2 2 3 2 2 2 2 2 2 2 3 4 4 4 3 4
20 20 19 20 21 20 21 19 19 19 18 19 18 17 17 16 14 13 10 2 1 1 1 1 2 2 2 2 2 2 2 2 2 2 2 3 3 4 4 4 3 4 3
20 20 20 20 21 20 21 19 19 19 19 19 19 18 17 17 16 14 13 11 2 1 1 1 1 1 1 1 1 2 2 2 2 2 2 2 2 3 3 3 3 3 4
21 20 20 21 20 21 21 19 19 20 19 19 19 19 18 17 17 16 14 13 10 4 1 1 1 1 1 1 1 1 1 1 2 3 3 2 3 5 3 2 3 4 4
21 20 20 20 21 21 21 20 19 19 20 20 19 19 19 18 18 17 15 14 13 11 6 3 4 5 5 7 6 3 3 3 3 3 3 3 5 5 5 5 5 3 4
21 21 21 20 20 21 21 21 21 19 21 20 20 19 19 19 18 18 17 16 15 13 12 8 6 7 7 8 6 6 4 3 3 4 4 4 2 4 2 5 5 5 5
21 21 21 20 21 20 20 19 20 20 21 21 20 20 20 19 19 18 18 17 16 15 14 12 9 9 8 8 8 7 4 5 4 3 3 4 5 4 3 3 4 4 4
21 21 19 19 20 21 21 21 21 21 21 22 21 20 19 19 19 19 19 18 17 15 15 13 11 10 10 9 8 7 6 5 5 4 4 3 4 5 5 3 3 2 3
20 20 20 19 20 21 20 22 22 21 22 21 20 20 19 19 19 19 19 18 17 16 15 13 11 10 11 10 9 8 7 7 6 5 8 9 7 7 5 3 3 4 3
20 20 21 21 21 21 21 22 22 23 21 20 20 20 19 18 19 19 19 18 17 16 16 16 16 14 12 11 10 10 10 9 9 8 9 10 9 9 7 6 4 4 4
19 20 21 21 20 20 20 21 22 21 21 21 20 20 19 19 18 19 19 19 18 17 17 17 16 16 15 13 12 11 11 10 10 11 11 11 11 10 9 7 6 6 5
19 20 21 21 21 20 20 21 21 21 21 21 22 20 20 20 20 20 19 19 18 19 18 18 18 17 16 16 14 13 13 12 13 12 12 12 11 10 9 8 8 7 6
20 19 20 21 22 21 20 22 21 21 21 22 22 21 21 20 20 19 19 19 19 19 19 19 19 18 17 16 16 15 15 14 14 14 13 13 11 10 9 8 8 7 7
20 20 21 21 21 21 21 22 20 21 21 21 21 20 20 21 21 20 19 18 18 16 18 18 18 18 18 16 15 15 15 15 15 14 15 14 13 12 11 10 9 9 9
22 21 20 21 20 22 21 21 21 21 21 22 21 21 20 21 20 21 21 18 16 16 15 16 16 17 16 15 15 15 14 14 14 15 15 15 15 14 12 12 12 13 12